User: anonymous   Login
Location: La Vergne
(36.0160°N, 86.5820°W)
Time: 13:19:01
(UTC-06:00)
Language:

Cosmos 1703 Rocket - Orbit

View from above orbital plane
View from above orbital plane
View from above satellite
View from above satellite

Ground track
Ground track

The orbit data is extracted from the following two-line orbital elements,

1 16263U 85108B   15058.88219061  .00000473  00000-0  55590-4 0  9996
2 16263 082.5060 182.4831 0019125 232.5887 246.8620 14.82671243579851
Epoch (UTC): 27 February 2015 21:10:21
Eccentricity: 0.0019125
inclination: 82.5060°
perigee height: 607 km
apogee height: 634 km
right ascension of ascending node: 182.4831°
argument of perigee: 232.5887°
revolutions per day: 14.82671243
mean anomaly at epoch: 246.8620°
orbit number at epoch: 57985

The dashed part of the orbit path shows where the satellite is in the earth's shadow,  

DLR